Location: Hurstbourne Priors
(51.2000°N, 1.3667°W)
Time: 11:59:52
(UTC+00:00)

Transit 2A Rocket - All Passes

Search period start: 18 April 2021 00:00
Search period end: 28 April 2021 00:00
Orbit: 594 x 908 km, 66.7° (Epoch: 18 April)

Date Brightness Start Highest point End Pass type
(mag) Time Alt. Az. Time Alt. Az. Time Alt. Az.
18 Apr - 00:58:07 10° NW 01:02:14 38° WSW 01:06:37 10° S visible
18 Apr - 15:37:38 10° S 15:41:53 43° ESE 15:46:00 10° NE daylight
18 Apr - 17:20:29 10° WSW 17:24:30 33° NW 17:28:27 10° NNE daylight
18 Apr - 19:06:23 10° NW 19:08:21 13° NNW 19:10:18 10° NNE daylight
18 Apr - 20:51:16 10° N 20:52:51 12° NNE 20:54:28 10° NNE visible
18 Apr - 22:33:06 10° NNW 22:36:52 27° NE 22:40:47 10° E visible
19 Apr - 00:15:20 10° NW 00:19:44 63° WSW 00:24:24 10° SSE visible
19 Apr - 14:55:44 10° S 14:59:27 26° ESE 15:03:03 10° ENE daylight
19 Apr - 16:37:24 10° WSW 16:41:44 50° NW 16:45:58 10° NNE daylight
19 Apr - 18:22:38 10° WNW 18:25:15 15° NNW 18:27:52 10° NNE daylight
19 Apr - 20:08:37 10° N 20:09:42 11° N 20:10:47 10° NNE visible
19 Apr - 21:50:40 10° NNW 21:53:57 20° NNE 21:57:20 10° ENE visible
19 Apr - 23:32:41 10° NW 23:37:08 80° NE 23:41:51 10° SE visible
20 Apr - 01:16:16 10° WNW 01:19:10 17° WSW 01:22:11 10° SSW visible
20 Apr - 14:14:29 10° SE 14:17:06 15° ESE 14:19:39 10° ENE daylight
20 Apr - 15:54:35 10° SW 15:59:03 81° NW 16:03:24 10° NE daylight
20 Apr - 17:39:01 10° WNW 17:42:14 20° NNW 17:45:27 10° NNE daylight
20 Apr - 19:25:28 10° NNW 19:26:31 11° N 19:27:34 10° N daylight
20 Apr - 21:08:15 10° NNW 21:10:57 16° NNE 21:13:41 10° ENE visible
20 Apr - 22:50:08 10° NNW 22:54:27 51° NE 22:59:01 10° ESE visible
21 Apr - 00:32:58 10° WNW 00:36:48 28° WSW 00:40:49 10° S visible
21 Apr - 15:12:05 10° SSW 15:16:28 61° ESE 15:20:45 10° NE daylight
21 Apr - 16:55:35 10° W 16:59:19 26° NW 17:03:00 10° NNE daylight
21 Apr - 18:41:48 10° NNW 18:43:21 12° N 18:44:53 10° N daylight
21 Apr - 20:25:48 10° NNW 20:27:51 13° NNE 20:29:56 10° NE visible
21 Apr - 22:07:39 10° NNW 22:11:41 34° NE 22:15:55 10° ESE visible
21 Apr - 23:50:03 10° NW 23:54:20 46° WSW 23:58:53 10° SSE visible
22 Apr - 14:29:54 10° S 14:33:59 36° ESE 14:37:56 10° NE daylight
22 Apr - 16:12:21 10° WSW 16:16:28 38° NW 16:20:32 10° NNE daylight
22 Apr - 17:58:02 10° NW 18:00:13 13° NNW 18:02:25 10° NNE daylight
22 Apr - 19:43:18 10° N 19:44:43 11° N 19:46:08 10° NNE visible
22 Apr - 21:25:11 10° NNW 21:28:49 24° NE 21:32:35 10° E visible
22 Apr - 23:07:20 10° NW 23:11:47 76° SW 23:16:33 10° SSE visible
23 Apr - 00:51:52 10° W 00:53:38 12° WSW 00:55:26 10° SW visible
23 Apr - 13:48:11 10° SSE 13:51:34 21° ESE 13:54:52 10° ENE daylight
23 Apr - 15:29:22 10° SW 15:33:44 59° NW 15:38:02 10° NNE daylight
23 Apr - 17:14:19 10° WNW 17:17:09 17° NNW 17:19:59 10° NNE daylight
23 Apr - 19:00:31 10° NNW 19:01:32 11° N 19:02:34 10° NNE daylight
23 Apr - 20:42:45 10° NNW 20:45:52 18° NNE 20:49:03 10° ENE visible
23 Apr - 22:24:44 10° NW 22:29:10 68° NE 22:33:53 10° SE visible
24 Apr - 00:07:58 10° WNW 00:11:19 20° WSW 00:14:49 10° SSW visible
24 Apr - 13:07:23 10° SE 13:09:15 13° ESE 13:11:07 10° E daylight
24 Apr - 14:46:39 10° SW 14:51:06 85° SE 14:55:26 10° NE daylight
24 Apr - 16:30:46 10° W 16:34:10 22° NNW 16:37:33 10° NNE daylight
24 Apr - 18:17:09 10° NNW 18:18:21 11° N 18:19:34 10° N daylight
24 Apr - 20:00:20 10° NNW 20:02:50 15° NNE 20:05:22 10° NE visible
24 Apr - 21:42:12 10° NNW 21:46:27 44° NE 21:50:57 10° ESE visible
24 Apr - 23:24:51 10° NW 23:28:54 33° WSW 23:33:12 10° S visible
25 Apr - 14:04:15 10° SSW 14:08:33 50° ESE 14:12:44 10° NE daylight
25 Apr - 15:47:23 10° W 15:51:15 30° NW 15:55:06 10° NNE daylight
25 Apr - 17:33:25 10° NW 17:35:12 12° NNW 17:36:59 10° N daylight
25 Apr - 19:17:52 10° NNW 19:19:43 12° NNE 19:21:35 10° NE daylight
25 Apr - 20:59:43 10° NNW 21:03:39 30° NE 21:07:46 10° E visible
25 Apr - 22:42:01 10° NW 22:46:24 55° WSW 22:51:06 10° SSE visible
26 Apr - 13:22:13 10° S 13:26:05 30° ESE 13:29:51 10° NE daylight
26 Apr - 15:04:15 10° WSW 15:08:28 44° NW 15:12:37 10° NNE daylight
26 Apr - 16:49:40 10° NW 16:52:06 14° NNW 16:54:31 10° NNE daylight
26 Apr - 18:35:17 10° N 18:36:34 11° N 18:37:50 10° NNE daylight
26 Apr - 20:17:16 10° NNW 20:20:45 22° NNE 20:24:21 10° E visible
26 Apr - 21:59:21 10° NW 22:03:50 89° SW 22:08:39 10° SE visible
26 Apr - 23:43:14 10° WNW 23:45:48 15° WSW 23:48:27 10° SW visible
27 Apr - 12:40:45 10° SSE 12:43:43 18° ESE 12:46:37 10° ENE daylight
27 Apr - 14:21:21 10° SW 14:25:45 71° NW 14:30:04 10° NE daylight
27 Apr - 16:06:00 10° WNW 16:09:02 18° NNW 16:12:05 10° NNE daylight
27 Apr - 17:52:19 10° NNW 17:53:23 11° N 17:54:27 10° NNE daylight
27 Apr - 19:34:50 10° NNW 19:37:46 17° NNE 19:40:46 10° ENE daylight
27 Apr - 21:16:46 10° NNW 21:21:11 58° NE 21:25:53 10° SE visible
27 Apr - 22:59:45 10° WNW 23:03:27 24° WSW 23:07:20 10° SSW visible
